Terminal Aerodrome Forecast
Issued by NWS Huntsville, AL

Home | Current Version | Previous Version | Text Only | Print | Product List | Glossary On
Versions: 1 2 3 4 5 6 7 8 9 10 11 12 13 14 15 16 17 18 19 20 21 22 23 24 25 26 27 28 29 30
685
FTUS44 KHUN 281720
TAFMSL
TAF
KMSL 281720Z 2818/2918 22010G18KT P6SM -RA BKN015 OVC025
      TEMPO 2818/2820 4SM RA BR BKN008
     FM282000 24007KT P6SM VCSH BKN025 OVC040
     FM282300 24005KT P6SM BKN015 OVC025
     FM290500 24005KT 5SM BR VCSH BKN008 OVC015
     FM291300 25005KT P6SM BKN015=

USA.gov is the U.S. government's official web portal to all federal, state and local government web resources and services.